SCP
0 0 0 0 -0 0 -0 0 0 0 0 0 0 0 0 0 0 0 0 0 0 0 0 0 0 0 0 0 0 0 0 0 0 0 0 0 0 0
0 -0 -0 0 -0 -0 0 0 0 0 0 0 0 0 0 0 0 0 0 0 0 0 0 0 0 0 0 0 0 0 0 0 0 0 0 0 0 0
0 -0 -0 -0 -0 0 0 0 0 0 0 0 0 0 0 0 0 0 0 0 0 0 0 0 0 0 0 0 0 0 0 0 0 0 0 0 0 0
0 -0 -0 -0 -0 0 0 0 0 0 0 -0 0 0 0 0 0 0 0 0 0 0 0 0 0 0 0 0 0 0 0 0 0 0 0 0 0 0
0 -0 -0 -0 -0 0 0 0 0 -0 -0 -0 0 0 0 0 0 0 0 0 0 0 0 0 0 0 0 0 0 0 0 0 0 0 0 0 0 0
0 0 -0 -0 -0 -0 0 -0 -0 -0 -0 -0 0 0 0 0 0 0 0 0 0 0 0 0 0 0 0 0 0 0 0 0 0 0 0 0 0 0
0 0 0 -0 -0 -0 -0 -0 -0 -0 -0 -0 0 0 0 0 0 0 0 0 0 0 0 0 0 0 0 0 0 0 0 0 0 0 0 0 0 0
0 0 0 -0 -0 -0 -0 -0 -0 -0 -0 0 0 0 -0 0 0 0 0 0 0 0 0 0 0 0 0 0 0 0 0 0 0 0 0 0 0 0
0 0 0 0 0 0 -0 -0 -0 -0 -0 -0 -0 0 0 0 0 0 0 0 0 0 0 0 0 0 0 0 0 0 0 0 0 0 0 0 0 0
0 0 0 0 0 0 -0 -0 -0 -0 -0 -0 -0 -0 0 -0 0 0 0 0 0 0 0 0 0 0 0 0 0 0 0 0 0 0 0 0 0 0
0 0 0 0 0 -0 -0 -0 -0 0 -0 -0 -0 -0 -0 -0 -0 0 0 0 0 0 0 0 0 0 0 0 0 0 0 0 0 0 0 0 0 0
0 0 0 0 0 -0 0 -0 -0 0 -0 -0 -0 -0 -0 -0 -0 0 0 0 0 0 0 0 0 0 0 0 0 0 0 0 0 0 0 0 0 0
0 0 0 0 0 0 0 0 0 -0 -0 -0 0 0 0 -0 0 0 0 0 0 0 0 0 0 0 0 0 0 0 0 0 0 0 0 0 0 0
0 0 0 0 0 0 0 0 -0 -0 0 0 0 0 0 -0 -0 0 0 0 0 0 0 0 0 0 0 0 0 0 0 0 0 0 0 0 0 0
0 0 0 0 0 0 0 -0 0 0 0 0 0 0 0 0 -0 -0 -0 0 0 0 0 0 0 0 0 0 0 0 0 0 0 0 0 0 0 0
0 0 0 0 0 0 0 0 0 0 0 0 0 0 0 0 0 0 -0 0 0 0 0 0 0 0 0 0 0 0 0 0 0 0 0 0 0 0
0 0 0 0 0 0 0 0 0 0 0 0 0 0 0 0 0 0 0 0 0 0 0 0 0 0 0 0 0 0 0 0 0 0 0 0 0 0
0 0 0 0 0 0 0 0 0 0 0 0 0 0 0 0 0 0 0 0 0 0 0 0 0 0 0 0 0 0 0 0 0 0 0 0 0 0
0 0 0 0 0 0 0 0 0 0 0 0 0 0 0 0 0 0 0 0 0 0 0 0 0 0 0 0 0 0 0 0 0 0 0 0 0 0
0 0 0 0 0 0 0 0 0 0 0 0 0 0 0 0 0 0 0 0 0 0 0 0 0 0 0 0 0 0 0 0 0 0 0 0 -0 0
0 0 0 0 0 0 0 0 0 0 0 0 0 0 0 0 0 0 0 0 0 0 0 0 0 0 0 0 0 0 0 0 0 0 0 0 0 0
0 0 0 0 0 0 0 0 0 0 0 0 0 0 0 0 0 0 0 0 0 0 0 0 0 0 0 0 0 0 0 0 0 0 0 0 0 0
0 0 0 0 0 0 0 0 0 0 0 0 0 0 0 0 0 0 0 0 0 0 0 0 0 0 0 0 0 0 0 0 0 0 0 0 0 0
Wind_Speed_500mb
23 25 37 49 61 68 69 73 72 59 48 38 35 23 27 33 35 33 31 30 28 19 9 6 8 9 17 6 18 22 25 26 26 25 27 26 25 25
25 31 43 56 64 61 72 65 58 61 41 42 33 32 30 30 32 28 27 24 20 15 12 11 8 12 6 9 15 19 22 23 26 27 28 30 30 29
30 34 47 56 63 63 63 51 35 34 26 47 44 39 34 31 30 26 20 17 14 10 10 14 13 7 3 6 10 17 18 19 23 27 27 29 33 34
39 45 51 55 61 61 53 42 34 30 20 33 45 42 35 36 32 25 22 14 9 7 8 11 10 6 4 4 7 12 18 22 22 24 29 31 33 35
45 50 52 58 63 60 44 38 28 29 26 30 46 41 41 42 35 28 22 18 13 8 9 6 2 4 8 10 13 16 19 23 24 28 28 31 34 34
48 53 51 58 62 54 38 35 23 22 29 34 44 43 42 43 38 29 23 17 12 6 2 4 8 11 16 16 19 21 23 24 26 23 27 29 36 37
53 54 53 50 51 46 37 32 26 22 28 40 42 42 42 41 39 30 23 18 12 11 9 13 18 22 25 26 27 29 30 28 24 22 23 28 33 37
58 58 56 55 53 43 31 22 17 16 23 37 39 38 36 35 35 29 23 20 15 11 20 18 21 25 26 26 29 30 28 25 24 21 22 27 34 36
56 59 62 64 58 55 38 31 27 21 13 15 24 29 29 25 24 26 23 18 20 21 22 23 24 22 23 27 30 32 27 29 27 23 21 28 32 35
55 56 62 69 66 60 49 37 31 25 25 26 22 22 25 26 23 20 19 18 20 19 19 27 23 21 23 22 23 23 26 24 23 20 20 27 33 33
53 55 60 66 67 61 53 43 35 27 26 31 29 27 28 26 23 24 20 14 14 18 21 21 15 16 22 18 16 23 18 11 12 21 24 28 30 34
54 55 59 60 64 64 59 49 38 30 28 28 28 24 23 22 19 20 19 16 17 14 13 17 13 14 13 13 14 17 20 22 23 24 29 28 29 32
60 62 63 61 59 60 57 47 36 29 30 28 25 23 23 20 21 23 20 15 14 13 12 15 17 14 11 20 21 20 16 24 24 27 32 32 37 39
60 59 60 61 58 57 54 48 43 38 34 30 29 28 28 27 24 22 16 12 15 12 14 19 21 20 19 22 25 23 26 30 32 29 26 33 41 36
52 56 56 57 58 57 55 51 49 45 41 38 35 32 28 28 27 27 17 17 18 12 14 23 23 21 22 22 25 26 34 34 24 20 29 34 37 40
51 52 53 55 58 55 56 53 51 47 42 38 33 33 36 35 29 29 24 17 18 23 23 23 23 20 19 22 26 26 28 25 32 29 29 32 35 32
54 58 62 65 63 61 60 56 53 50 47 42 39 38 38 36 34 32 31 22 24 28 25 23 20 22 21 22 23 24 27 26 28 29 32 25 30 34
59 64 67 67 67 64 62 59 56 52 46 43 41 39 39 39 37 35 36 32 31 27 23 20 23 22 19 18 16 18 28 30 26 26 32 37 30 27
61 63 63 63 64 63 61 59 56 50 44 44 42 41 38 38 39 36 33 35 32 29 28 28 24 22 21 16 17 16 20 24 27 32 36 31 30 19
62 62 64 65 63 62 60 58 53 49 49 47 45 43 42 40 42 38 37 34 29 30 33 29 24 21 16 15 17 19 23 29 31 34 29 22 20 12
68 64 60 61 63 63 61 59 56 55 53 51 48 48 45 45 43 39 38 37 33 33 31 24 19 17 16 17 21 23 24 26 29 26 24 15 8 9
66 64 60 57 56 58 61 63 63 62 61 61 58 55 52 50 49 45 43 44 39 35 29 22 18 22 24 24 25 24 26 27 26 25 15 9 11 7
66 64 61 61 62 63 61 61 64 68 69 68 66 63 60 58 53 51 47 48 42 42 42 34 27 29 33 30 26 26 29 23 16 11 4 4 6 10
Wind_Direction_500mb
175 175 174 172 168 168 163 161 157 144 138 143 134 146 143 133 136 134 135 138 144 151 169 175 179 209 240 5 11 11 6 8 10 13 17 13 4 359
176 161 161 167 169 169 172 170 167 159 146 156 160 161 158 153 145 148 151 152 159 175 191 192 182 234 208 11 17 14 13 15 17 19 20 14 7 0
172 167 160 162 172 176 182 183 176 163 168 165 171 168 163 170 159 164 164 173 186 203 184 149 163 188 123 21 24 13 7 8 13 16 12 8 9 8
173 167 161 159 170 176 182 178 184 188 195 189 182 174 177 169 168 172 172 178 169 148 149 169 158 167 227 275 306 337 349 348 355 358 359 359 358 358
177 171 169 168 171 171 170 183 179 199 213 208 187 180 174 172 175 170 166 155 147 146 138 126 187 275 295 304 314 321 327 326 332 342 344 346 345 345
183 179 175 177 178 177 178 180 191 202 200 197 188 182 181 176 174 172 168 162 169 175 197 239 270 284 293 306 310 314 307 315 320 330 337 336 337 336
185 187 187 182 182 182 193 190 191 192 187 184 190 188 186 187 183 182 180 186 187 224 265 275 277 288 297 297 301 306 305 303 311 312 330 334 337 334
187 190 189 188 188 187 177 190 195 191 187 185 191 193 190 193 197 201 209 220 243 268 283 285 295 295 299 297 296 298 297 297 299 304 314 327 330 337
195 192 188 188 186 188 186 186 183 174 188 209 194 193 193 197 207 214 222 237 254 273 296 288 298 308 317 318 301 295 298 296 295 294 309 321 329 335
199 198 193 191 190 193 194 190 189 183 191 185 190 202 211 215 218 229 232 250 265 280 296 294 304 309 317 313 310 312 310 297 293 297 304 322 331 337
201 197 195 196 195 195 198 197 196 191 193 195 196 196 202 213 219 229 242 258 271 281 279 307 306 319 322 313 342 339 336 342 327 320 322 326 331 334
199 197 197 198 201 201 203 209 210 204 205 204 203 204 207 212 219 236 222 250 275 286 295 328 330 328 311 301 300 321 330 322 321 325 324 318 325 330
201 195 195 197 201 204 207 210 212 219 214 213 215 219 215 220 226 245 229 244 260 282 304 298 315 324 299 304 319 318 331 314 313 313 306 310 320 321
206 202 199 198 198 204 208 211 215 218 218 217 222 224 229 246 246 231 224 252 264 277 307 307 304 300 313 324 324 327 321 319 320 312 316 319 318 321
212 206 201 200 200 205 209 211 216 220 221 222 224 229 235 236 246 232 222 256 248 256 291 283 292 304 309 306 310 319 325 326 320 322 318 319 320 313
198 196 197 200 203 205 209 211 217 221 227 230 233 238 228 235 234 227 229 249 263 256 282 276 293 291 305 304 301 312 315 316 314 315 320 321 318 323
193 193 197 201 203 206 211 215 220 224 224 228 225 222 222 231 228 233 232 237 248 259 273 282 281 288 292 302 303 314 321 318 314 317 315 318 320 320
196 198 202 205 206 207 210 215 218 223 223 221 218 222 226 225 238 245 240 236 242 253 266 280 282 276 282 289 295 315 316 314 314 311 317 318 320 316
206 204 206 208 209 212 213 217 218 219 220 221 219 220 227 233 236 242 239 242 245 255 266 274 278 269 268 278 296 306 307 302 308 320 324 321 322 312
218 212 211 212 214 214 215 218 219 216 220 219 217 221 227 233 238 235 239 239 247 253 262 270 275 260 255 273 282 288 288 292 306 316 319 332 331 325
222 219 219 218 217 218 217 219 219 220 219 221 223 224 228 232 234 236 232 237 243 250 248 258 241 238 255 282 281 283 292 298 310 316 329 358 67 83
228 229 226 224 225 224 221 218 220 220 221 223 225 227 228 233 235 236 237 235 244 242 234 221 241 264 269 271 274 281 286 290 299 307 335 13 27 21
226 228 230 231 230 231 226 222 222 224 227 227 227 228 228 231 234 237 236 238 241 235 227 217 237 256 259 259 265 272 284 295 304 297 333 2 350 349
Wind_Speed_850mb
23 25 37 49 61 68 69 73 72 59 48 38 35 23 27 33 35 33 31 30 28 19 9 6 8 9 17 6 18 22 25 26 26 25 27 26 25 25
25 31 43 56 64 61 72 65 58 61 41 42 33 32 30 30 32 28 27 24 20 15 12 11 8 12 6 9 15 19 22 23 26 27 28 30 30 29
30 34 47 56 63 63 63 51 35 34 26 47 44 39 34 31 30 26 20 17 14 10 10 14 13 7 3 6 10 17 18 19 23 27 27 29 33 34
39 45 51 55 61 61 53 42 34 30 20 33 45 42 35 36 32 25 22 14 9 7 8 11 10 6 4 4 7 12 18 22 22 24 29 31 33 35
45 50 52 58 63 60 44 38 28 29 26 30 46 41 41 42 35 28 22 18 13 8 9 6 2 4 8 10 13 16 19 23 24 28 28 31 34 34
48 53 51 58 62 54 38 35 23 22 29 34 44 43 42 43 38 29 23 17 12 6 2 4 8 11 16 16 19 21 23 24 26 23 27 29 36 37
53 54 53 50 51 46 37 32 26 22 28 40 42 42 42 41 39 30 23 18 12 11 9 13 18 22 25 26 27 29 30 28 24 22 23 28 33 37
58 58 56 55 53 43 31 22 17 16 23 37 39 38 36 35 35 29 23 20 15 11 20 18 21 25 26 26 29 30 28 25 24 21 22 27 34 36
56 59 62 64 58 55 38 31 27 21 13 15 24 29 29 25 24 26 23 18 20 21 22 23 24 22 23 27 30 32 27 29 27 23 21 28 32 35
55 56 62 69 66 60 49 37 31 25 25 26 22 22 25 26 23 20 19 18 20 19 19 27 23 21 23 22 23 23 26 24 23 20 20 27 33 33
53 55 60 66 67 61 53 43 35 27 26 31 29 27 28 26 23 24 20 14 14 18 21 21 15 16 22 18 16 23 18 11 12 21 24 28 30 34
54 55 59 60 64 64 59 49 38 30 28 28 28 24 23 22 19 20 19 16 17 14 13 17 13 14 13 13 14 17 20 22 23 24 29 28 29 32
60 62 63 61 59 60 57 47 36 29 30 28 25 23 23 20 21 23 20 15 14 13 12 15 17 14 11 20 21 20 16 24 24 27 32 32 37 39
60 59 60 61 58 57 54 48 43 38 34 30 29 28 28 27 24 22 16 12 15 12 14 19 21 20 19 22 25 23 26 30 32 29 26 33 41 36
52 56 56 57 58 57 55 51 49 45 41 38 35 32 28 28 27 27 17 17 18 12 14 23 23 21 22 22 25 26 34 34 24 20 29 34 37 40
51 52 53 55 58 55 56 53 51 47 42 38 33 33 36 35 29 29 24 17 18 23 23 23 23 20 19 22 26 26 28 25 32 29 29 32 35 32
54 58 62 65 63 61 60 56 53 50 47 42 39 38 38 36 34 32 31 22 24 28 25 23 20 22 21 22 23 24 27 26 28 29 32 25 30 34
59 64 67 67 67 64 62 59 56 52 46 43 41 39 39 39 37 35 36 32 31 27 23 20 23 22 19 18 16 18 28 30 26 26 32 37 30 27
61 63 63 63 64 63 61 59 56 50 44 44 42 41 38 38 39 36 33 35 32 29 28 28 24 22 21 16 17 16 20 24 27 32 36 31 30 19
62 62 64 65 63 62 60 58 53 49 49 47 45 43 42 40 42 38 37 34 29 30 33 29 24 21 16 15 17 19 23 29 31 34 29 22 20 12
68 64 60 61 63 63 61 59 56 55 53 51 48 48 45 45 43 39 38 37 33 33 31 24 19 17 16 17 21 23 24 26 29 26 24 15 8 9
66 64 60 57 56 58 61 63 63 62 61 61 58 55 52 50 49 45 43 44 39 35 29 22 18 22 24 24 25 24 26 27 26 25 15 9 11 7
66 64 61 61 62 63 61 61 64 68 69 68 66 63 60 58 53 51 47 48 42 42 42 34 27 29 33 30 26 26 29 23 16 11 4 4 6 10
Wind_Direction_850mb
175 175 174 172 168 168 163 161 157 144 138 143 134 146 143 133 136 134 135 138 144 151 169 175 179 209 240 5 11 11 6 8 10 13 17 13 4 359
176 161 161 167 169 169 172 170 167 159 146 156 160 161 158 153 145 148 151 152 159 175 191 192 182 234 208 11 17 14 13 15 17 19 20 14 7 0
172 167 160 162 172 176 182 183 176 163 168 165 171 168 163 170 159 164 164 173 186 203 184 149 163 188 123 21 24 13 7 8 13 16 12 8 9 8
173 167 161 159 170 176 182 178 184 188 195 189 182 174 177 169 168 172 172 178 169 148 149 169 158 167 227 275 306 337 349 348 355 358 359 359 358 358
177 171 169 168 171 171 170 183 179 199 213 208 187 180 174 172 175 170 166 155 147 146 138 126 187 275 295 304 314 321 327 326 332 342 344 346 345 345
183 179 175 177 178 177 178 180 191 202 200 197 188 182 181 176 174 172 168 162 169 175 197 239 270 284 293 306 310 314 307 315 320 330 337 336 337 336
185 187 187 182 182 182 193 190 191 192 187 184 190 188 186 187 183 182 180 186 187 224 265 275 277 288 297 297 301 306 305 303 311 312 330 334 337 334
187 190 189 188 188 187 177 190 195 191 187 185 191 193 190 193 197 201 209 220 243 268 283 285 295 295 299 297 296 298 297 297 299 304 314 327 330 337
195 192 188 188 186 188 186 186 183 174 188 209 194 193 193 197 207 214 222 237 254 273 296 288 298 308 317 318 301 295 298 296 295 294 309 321 329 335
199 198 193 191 190 193 194 190 189 183 191 185 190 202 211 215 218 229 232 250 265 280 296 294 304 309 317 313 310 312 310 297 293 297 304 322 331 337
201 197 195 196 195 195 198 197 196 191 193 195 196 196 202 213 219 229 242 258 271 281 279 307 306 319 322 313 342 339 336 342 327 320 322 326 331 334
199 197 197 198 201 201 203 209 210 204 205 204 203 204 207 212 219 236 222 250 275 286 295 328 330 328 311 301 300 321 330 322 321 325 324 318 325 330
201 195 195 197 201 204 207 210 212 219 214 213 215 219 215 220 226 245 229 244 260 282 304 298 315 324 299 304 319 318 331 314 313 313 306 310 320 321
206 202 199 198 198 204 208 211 215 218 218 217 222 224 229 246 246 231 224 252 264 277 307 307 304 300 313 324 324 327 321 319 320 312 316 319 318 321
212 206 201 200 200 205 209 211 216 220 221 222 224 229 235 236 246 232 222 256 248 256 291 283 292 304 309 306 310 319 325 326 320 322 318 319 320 313
198 196 197 200 203 205 209 211 217 221 227 230 233 238 228 235 234 227 229 249 263 256 282 276 293 291 305 304 301 312 315 316 314 315 320 321 318 323
193 193 197 201 203 206 211 215 220 224 224 228 225 222 222 231 228 233 232 237 248 259 273 282 281 288 292 302 303 314 321 318 314 317 315 318 320 320
196 198 202 205 206 207 210 215 218 223 223 221 218 222 226 225 238 245 240 236 242 253 266 280 282 276 282 289 295 315 316 314 314 311 317 318 320 316
206 204 206 208 209 212 213 217 218 219 220 221 219 220 227 233 236 242 239 242 245 255 266 274 278 269 268 278 296 306 307 302 308 320 324 321 322 312
218 212 211 212 214 214 215 218 219 216 220 219 217 221 227 233 238 235 239 239 247 253 262 270 275 260 255 273 282 288 288 292 306 316 319 332 331 325
222 219 219 218 217 218 217 219 219 220 219 221 223 224 228 232 234 236 232 237 243 250 248 258 241 238 255 282 281 283 292 298 310 316 329 358 67 83
228 229 226 224 225 224 221 218 220 220 221 223 225 227 228 233 235 236 237 235 244 242 234 221 241 264 269 271 274 281 286 290 299 307 335 13 27 21
226 228 230 231 230 231 226 222 222 224 227 227 227 228 228 231 234 237 236 238 241 235 227 217 237 256 259 259 265 272 284 295 304 297 333 2 350 349